Dewpoint
31 29 27 26 24 27 27 25 24 24 24 26 26 25 23 22 18 23 42 46 48 48 39 40 41 40 40 42 41 40 40 41 40 40 39 39 40 41 42 42 42 42 42 41
20 24 30 30 28 26 25 26 25 25 26 25 23 21 21 21 21 18 28 41 44 38 36 38 39 39 40 41 40 38 37 38 37 37 36 37 39 40 41 41 42 42 41 41
18 20 23 27 29 31 30 27 27 27 26 25 21 21 21 22 21 20 18 32 39 37 35 37 38 38 39 39 37 35 35 35 36 37 37 39 39 39 38 39 40 40 40 40
15 15 15 15 16 22 23 29 30 29 28 24 21 17 19 21 21 22 21 22 30 35 35 36 37 37 37 37 36 35 36 37 37 37 37 36 36 36 38 39 39 39 40 39
12 13 15 15 16 20 20 20 20 20 18 18 17 18 18 19 19 19 20 21 24 33 33 35 36 36 35 35 35 36 37 37 37 37 36 37 37 37 38 38 37 37 36 37
12 14 13 14 14 13 18 16 17 19 18 15 16 16 15 16 16 17 18 18 19 29 33 34 35 34 34 35 36 36 36 36 36 36 36 36 36 35 35 36 35 36 35 35
27 25 23 21 18 16 14 15 12 13 15 14 15 15 15 17 17 20 19 21 29 26 32 34 33 33 34 35 35 36 35 35 35 35 35 35 35 35 34 34 34 34 33 33
26 22 23 26 19 16 18 14 11 11 13 14 16 14 15 20 32 33 33 33 32 33 34 33 32 33 33 34 35 35 35 35 35 36 35 35 35 35 35 33 33 33 32 32
25 25 28 24 28 27 23 16 15 12 14 16 16 17 17 31 33 33 32 33 33 33 33 33 33 33 33 34 34 35 34 35 36 36 35 35 35 34 33 33 33 33 32 30
28 21 27 28 27 26 27 30 20 22 14 14 19 17 23 33 35 33 31 31 33 33 33 33 33 33 33 33 34 35 35 35 35 34 34 34 33 33 32 32 31 31 30 31
29 30 26 25 21 26 27 25 32 33 27 15 11 21 35 34 36 37 31 31 32 33 33 34 33 33 33 34 34 34 34 34 34 34 34 33 32 31 31 31 31 30 30 30
26 26 24 23 25 32 34 33 33 25 24 27 27 27 36 34 34 34 38 39 34 33 33 34 33 32 32 33 33 33 35 34 34 33 33 32 30 30 29 30 29 28 29 29
23 25 20 15 26 22 29 31 30 29 28 24 21 25 37 32 32 34 35 38 38 37 35 35 34 33 33 34 34 33 34 33 33 33 31 30 29 28 28 29 28 27 27 27
27 22 20 15 15 16 17 26 28 26 22 20 19 18 26 29 32 34 37 38 39 38 38 38 36 34 33 33 32 31 33 33 32 31 29 28 28 28 27 27 27 28 27 27
28 24 23 22 22 22 22 20 20 25 21 15 16 17 16 19 29 31 35 39 37 39 39 38 35 33 33 32 30 30 32 31 30 29 28 27 27 27 26 26 27 27 26 24
32 22 23 20 20 19 17 16 15 14 14 14 16 15 15 16 23 26 28 38 37 37 39 36 34 33 32 31 30 30 31 30 28 28 27 27 25 24 24 25 24 23 22 22
28 26 25 20 23 21 18 18 18 18 15 13 12 15 16 10 16 27 32 33 30 35 37 34 32 32 31 30 29 30 30 29 28 27 27 25 24 23 23 22 21 20 19 19
26 26 25 19 21 12 15 19 16 17 18 17 15 15 24 22 31 34 34 35 36 36 34 33 31 31 30 29 30 30 29 28 27 26 25 24 23 21 21 20 19 19 19 17
26 25 21 19 16 16 15 14 13 11 10 17 22 26 29 31 33 30 31 34 34 34 33 30 30 30 29 29 30 32 31 30 25 25 23 22 21 19 19 18 17 17 16 15
27 26 23 21 14 9 12 15 17 15 7 25 25 25 27 31 26 26 31 34 33 32 31 30 30 30 31 32 33 31 29 28 26 24 22 22 19 18 17 17 16 14 14 11
22 23 20 19 15 15 16 19 21 14 9 26 27 27 27 28 29 31 33 33 32 32 31 31 31 31 32 32 32 31 30 28 28 24 22 19 18 17 16 16 15 14 14 13
17 16 18 18 16 12 21 18 14 17 25 27 28 28 29 32 32 32 32 32 32 32 32 32 31 31 32 33 31 30 29 26 22 21 19 18 17 15 14 15 15 13 13 13
10 14 16 17 16 20 21 19 24 28 27 29 30 31 33 33 32 32 31 30 31 31 30 30 30 31 31 32 30 25 23 21 21 19 18 17 17 15 14 13 14 13 13 12
14 17 12 14 14 17 21 19 19 21 31 29 33 35 36 34 33 32 29 28 26 23 22 23 24 25 24 24 21 22 21 19 19 19 18 18 17 17 16 16 15 14 13 12
13 18 16 16 17 15 14 16 18 26 25 31 33 37 36 35 34 30 28 26 21 20 19 19 19 19 21 20 21 20 18 17 18 19 18 18 19 17 17 16 15 14 12 12
18 16 11 6 15 10 11 17 18 22 25 27 31 34 37 36 34 29 26 22 20 19 18 18 19 20 20 20 17 19 18 17 18 18 19 20 19 18 17 16 16 18 16 17
Wind_Speed
5 8 19 24 18 17 16 17 20 20 27 15 24 28 27 29 10 14 22 19 23 28 16 19 20 22 21 21 22 22 23 19 19 17 18 16 13 12 10 12 12 15 14 13
7 21 15 12 13 20 23 24 24 19 24 17 21 29 24 21 16 11 23 26 26 15 21 22 23 22 24 23 19 20 20 19 18 18 10 8 14 8 12 12 15 15 14 13
20 9 4 11 19 17 20 23 20 25 22 28 14 39 16 12 14 12 14 24 21 29 30 25 26 27 23 23 22 22 21 20 17 17 18 17 16 11 13 14 13 13 15 14
17 14 23 25 21 16 32 16 22 25 20 21 7 41 11 9 16 15 15 15 21 23 21 23 28 26 25 21 18 19 19 19 16 16 20 20 15 17 10 14 13 14 13 14
11 4 7 16 22 21 33 10 11 14 18 18 23 15 10 10 15 16 16 16 18 26 29 32 29 24 20 22 21 20 20 19 17 18 20 19 19 16 15 14 17 15 13 14
19 11 13 17 18 18 8 9 11 12 11 22 23 17 39 22 20 16 21 21 14 23 25 23 20 23 23 20 20 20 22 19 19 19 18 22 23 18 17 15 16 13 12 11
6 10 9 16 24 16 19 7 12 12 14 30 11 15 26 6 10 9 15 20 18 17 24 27 29 28 25 22 20 19 22 20 19 21 19 18 19 18 17 14 14 13 12 11
7 9 1 4 3 5 12 15 24 13 17 22 13 14 14 3 5 7 9 9 13 15 19 25 26 28 25 23 20 21 22 20 19 20 19 15 15 15 14 13 12 12 13 10
8 9 4 12 4 1 3 11 25 27 26 16 14 11 8 14 16 13 11 12 15 16 18 21 24 25 25 21 20 21 21 19 19 18 17 16 16 16 15 12 11 10 9 11
3 10 2 5 3 5 3 4 6 5 18 24 9 8 3 21 20 13 11 12 12 11 17 22 23 21 18 21 21 21 21 23 19 18 17 16 16 15 13 11 12 11 12 13
7 2 6 6 4 4 6 4 2 9 3 16 26 7 7 15 22 23 13 12 8 10 14 17 18 17 20 19 20 21 23 24 19 17 17 17 15 14 13 12 11 10 12 12
4 1 11 9 11 1 2 2 3 4 5 5 2 5 10 15 12 17 19 22 19 9 5 4 12 17 21 22 22 22 20 19 18 17 18 18 15 14 14 13 12 13 13 11
2 2 6 13 3 4 5 3 4 6 4 2 5 3 5 14 13 9 11 8 8 8 5 1 7 16 21 19 19 21 21 20 18 18 18 16 15 15 14 14 12 12 13 12
10 15 13 17 7 3 5 6 10 7 4 4 12 15 8 9 17 19 25 20 20 21 30 23 18 15 18 20 20 19 21 22 20 20 19 17 15 15 15 13 13 14 12 14
4 11 16 21 12 7 11 15 12 18 17 13 19 21 18 11 18 22 26 24 22 22 25 23 25 25 19 22 19 19 21 22 22 22 21 18 15 13 14 15 15 15 15 13
5 6 4 10 14 8 15 17 18 17 17 17 21 25 6 7 11 18 22 23 27 23 26 21 23 24 22 22 21 21 21 19 20 21 20 18 18 15 16 17 15 15 14 12
4 7 7 9 3 1 7 21 19 12 9 11 14 13 8 18 17 10 9 5 11 21 28 24 31 31 26 23 20 21 21 21 21 20 19 18 17 17 17 16 15 15 14 12
8 8 6 7 1 10 6 4 1 7 8 4 8 11 12 9 6 6 9 11 12 16 15 24 25 23 20 18 17 18 19 20 17 18 19 18 17 17 16 16 16 13 11 12
17 12 7 7 10 8 15 3 5 4 8 5 7 10 7 10 2 10 12 9 8 5 11 19 22 25 24 23 24 23 17 19 18 18 19 17 19 18 16 16 14 10 12 10
17 12 14 6 5 7 3 6 5 0 14 2 9 12 13 8 6 16 8 4 3 12 17 23 25 26 27 23 21 23 21 19 15 16 18 17 17 18 17 15 13 10 10 9
10 9 21 15 9 8 8 0 3 8 5 4 7 12 13 9 8 5 5 2 4 6 12 17 21 24 25 24 24 21 20 20 17 17 18 17 16 17 16 13 12 10 11 11
13 15 10 10 12 18 10 3 4 4 5 6 8 11 14 12 2 10 10 9 10 11 13 14 15 18 18 17 22 22 20 19 19 21 20 18 17 15 14 16 12 10 11 9
14 10 11 14 13 6 5 7 3 6 11 7 8 13 12 11 10 12 10 14 17 16 16 15 18 19 18 19 18 21 21 22 21 21 19 17 14 14 14 15 14 12 10 9
5 4 6 6 7 9 3 5 11 15 14 12 12 11 8 14 12 12 13 13 17 15 15 16 19 19 19 18 18 19 20 21 21 20 19 17 16 14 12 11 12 12 11 9
6 12 11 6 6 6 10 13 17 8 15 15 16 12 14 16 17 18 17 17 14 14 15 16 19 19 18 18 18 18 20 20 19 19 17 16 14 13 13 12 13 12 11 11
7 8 13 12 10 7 14 14 19 18 19 20 19 19 17 18 18 17 17 17 18 18 17 18 19 19 15 17 17 18 20 21 19 17 15 14 13 12 12 12 7 7 10 11
Wind_Direction
252 232 218 231 221 237 256 257 261 270 281 298 285 286 283 282 276 225 220 209 201 204 185 167 162 157 153 161 160 156 152 153 144 142 137 131 126 125 105 100 91 90 86 76
272 248 242 244 228 232 242 259 269 277 274 278 283 281 274 272 265 228 217 211 211 178 171 168 164 162 164 163 162 153 153 154 147 142 134 126 131 106 105 92 80 87 80 71
245 223 344 250 246 249 245 243 258 264 283 286 292 285 272 258 247 251 223 217 210 192 180 173 171 171 162 164 158 152 148 143 141 133 117 114 112 104 96 85 83 70 75 69
254 237 241 259 253 249 262 239 251 258 267 268 232 279 268 242 252 249 245 224 215 199 190 176 170 169 164 157 144 138 133 131 131 135 132 136 133 123 113 109 97 76 75 74
218 157 225 238 247 240 262 247 274 271 264 268 253 252 280 215 242 254 261 264 223 196 185 182 178 163 147 142 139 131 122 117 119 117 124 120 113 111 109 100 94 84 69 68
258 259 253 267 267 254 274 301 302 274 235 247 256 221 271 253 245 247 253 262 251 198 185 165 151 139 135 133 130 125 119 114 111 112 116 121 124 122 112 106 97 89 78 70
326 282 260 238 255 262 262 271 284 262 222 251 235 223 238 234 252 255 269 283 313 204 162 150 146 140 137 132 129 124 119 117 113 111 111 116 116 113 110 106 105 96 82 71
272 292 336 25 227 228 261 220 228 256 245 258 255 239 248 89 71 48 59 56 69 110 137 142 138 134 133 134 132 129 126 119 113 111 109 104 101 103 101 103 101 102 97 88
213 254 256 300 214 201 277 223 234 239 257 268 261 285 289 32 34 39 50 66 86 106 123 130 126 130 139 137 134 130 124 116 109 110 107 105 106 105 104 102 99 93 95 88
314 286 288 290 312 239 347 7 272 202 236 245 236 256 310 4 5 20 30 69 78 103 129 137 135 138 139 136 129 123 126 117 121 117 115 113 109 105 109 109 101 98 89 86
135 233 273 328 276 329 343 303 327 308 229 249 250 221 80 40 30 27 43 54 74 127 146 147 141 130 127 126 131 127 123 130 131 123 117 114 113 111 109 101 97 96 88 85
308 222 273 257 272 230 140 146 120 263 319 323 290 168 77 26 13 4 19 38 31 24 17 121 131 127 138 139 140 135 134 133 129 124 122 120 115 108 102 102 107 99 97 90
290 353 318 304 86 60 73 86 109 138 76 314 303 231 260 355 315 261 224 183 196 123 36 78 154 150 147 149 150 147 142 135 127 123 121 116 111 110 109 115 112 106 98 89
250 212 211 238 246 161 246 194 187 159 235 237 240 269 246 236 253 240 229 203 190 182 165 196 205 181 165 164 152 146 139 136 135 128 123 116 116 116 112 107 101 98 87 80
201 223 236 246 263 230 265 274 246 217 226 236 263 272 283 256 224 242 225 202 203 193 193 193 186 182 173 159 155 150 143 138 136 128 124 126 120 112 104 95 89 89 82 77
179 233 194 249 260 255 255 248 241 247 259 256 258 266 295 317 249 245 242 201 207 211 211 191 177 175 170 168 161 150 142 139 131 128 126 126 120 109 101 100 98 95 86 75
187 197 223 252 12 289 261 256 243 234 229 240 252 271 332 312 311 296 293 280 248 213 215 185 179 179 173 165 158 147 140 136 127 130 127 122 119 112 113 109 101 93 88 83
208 186 184 253 277 259 251 197 251 228 247 243 277 304 321 288 272 288 301 299 289 276 201 177 166 157 153 142 136 130 133 123 124 126 126 125 120 116 112 107 99 96 97 90
217 200 225 226 233 277 284 219 156 104 289 343 326 356 357 331 167 280 290 315 317 287 149 144 145 142 138 142 139 125 130 132 139 135 135 132 125 121 115 108 110 113 104 95
209 201 208 184 227 236 223 132 130 249 279 38 358 335 330 331 292 286 280 283 103 126 133 137 141 139 135 142 141 140 144 135 138 144 134 128 127 121 118 121 118 109 104 98
178 198 224 231 236 264 221 327 278 195 238 263 285 290 303 289 261 269 171 104 74 99 129 134 143 146 147 144 143 141 140 136 148 137 129 125 125 121 123 121 122 115 108 90
172 175 194 202 213 243 192 179 176 218 261 247 272 290 300 279 234 158 158 142 132 136 143 145 139 140 144 139 140 144 139 148 142 133 128 128 126 127 131 128 129 118 107 96
201 192 184 184 207 208 149 190 247 246 249 246 267 299 291 265 221 186 174 156 146 157 160 159 147 144 144 146 149 145 147 139 132 130 132 132 131 136 136 135 133 122 117 116
223 169 202 176 217 220 201 283 278 280 253 273 271 285 245 238 216 180 156 154 147 153 152 143 141 143 147 150 141 135 142 135 137 138 139 141 142 143 144 140 136 145 148 140
201 169 183 221 249 297 289 276 275 259 283 274 276 258 235 218 209 188 161 160 150 137 133 135 131 132 137 137 136 144 140 139 140 143 146 146 146 153 150 148 157 167 178 158
201 193 186 217 173 227 266 261 265 274 272 279 277 266 246 211 198 169 164 157 147 139 128 127 120 120 122 134 136 143 146 143 143 148 150 150 154 161 158 158 167 201 176 186